Year,Month,Day,Hour,Minute,Value (Times are PST for temperature in C)
2013,09,02,00,00,17.20
2013,09,02,00,01,17.20
2013,09,02,00,02,17.20
2013,09,02,00,03,17.20
2013,09,02,00,04,17.20
2013,09,02,00,05,17.20
2013,09,02,00,06,17.20
2013,09,02,00,07,17.20
2013,09,02,00,08,17.20
2013,09,02,00,09,17.10
2013,09,02,00,10,17.10
2013,09,02,00,11,17.10
2013,09,02,00,12,17.10
2013,09,02,00,13,17.10
2013,09,02,00,14,17.10
2013,09,02,00,15,17.10
2013,09,02,00,16,17.10
2013,09,02,00,17,17.10
2013,09,02,00,18,17.10
2013,09,02,00,19,17.10
2013,09,02,00,20,17.00
2013,09,02,00,21,17.00
2013,09,02,00,22,17.00
2013,09,02,00,23,17.00
2013,09,02,00,24,16.90
2013,09,02,00,25,16.90
2013,09,02,00,26,16.90
2013,09,02,00,27,16.90
2013,09,02,00,28,16.90
2013,09,02,00,29,16.90
2013,09,02,00,30,16.90
2013,09,02,00,31,16.90
2013,09,02,00,32,16.90
2013,09,02,00,33,16.90
2013,09,02,00,34,16.90
2013,09,02,00,35,16.80
2013,09,02,00,36,16.80
2013,09,02,00,37,16.80
2013,09,02,00,38,16.80
2013,09,02,00,39,16.80
2013,09,02,00,40,16.80
2013,09,02,00,41,16.80
2013,09,02,00,42,16.80
2013,09,02,00,43,16.80
2013,09,02,00,44,16.80
2013,09,02,00,45,16.80
2013,09,02,00,46,16.80
2013,09,02,00,47,16.70
2013,09,02,00,48,16.70
2013,09,02,00,49,16.70
2013,09,02,00,50,16.70
2013,09,02,00,51,16.70
2013,09,02,00,52,16.70
2013,09,02,00,53,16.70
2013,09,02,00,54,16.70
2013,09,02,00,55,16.70
2013,09,02,00,56,16.70
2013,09,02,00,57,16.70
2013,09,02,00,58,16.70
2013,09,02,00,59,16.70
2013,09,02,01,00,16.60
2013,09,02,01,01,16.60
2013,09,02,01,02,16.60
2013,09,02,01,03,16.60
2013,09,02,01,04,16.60
2013,09,02,01,05,16.60
2013,09,02,01,06,16.50
2013,09,02,01,07,16.50
2013,09,02,01,08,16.50
2013,09,02,01,09,16.40
2013,09,02,01,10,16.40
2013,09,02,01,11,16.40
2013,09,02,01,12,16.40
2013,09,02,01,13,16.30
2013,09,02,01,14,16.30
2013,09,02,01,15,16.30
2013,09,02,01,16,16.20
2013,09,02,01,17,16.20
2013,09,02,01,18,16.20
2013,09,02,01,19,16.10
2013,09,02,01,20,16.10
2013,09,02,01,21,16.10
2013,09,02,01,22,16.10
2013,09,02,01,23,16.00
2013,09,02,01,24,16.00
2013,09,02,01,25,16.00
2013,09,02,01,26,15.90
2013,09,02,01,27,15.90
2013,09,02,01,28,15.90
2013,09,02,01,29,15.90
2013,09,02,01,30,15.90
2013,09,02,01,31,15.90
2013,09,02,01,32,15.90
2013,09,02,01,33,15.90
2013,09,02,01,34,15.90
2013,09,02,01,35,15.90
2013,09,02,01,36,15.90
2013,09,02,01,37,15.90
2013,09,02,01,38,15.90
2013,09,02,01,39,16.00
2013,09,02,01,40,16.00
2013,09,02,01,41,16.00
2013,09,02,01,42,16.00
2013,09,02,01,43,16.00
2013,09,02,01,44,16.00
2013,09,02,01,45,16.10
2013,09,02,01,46,16.10
2013,09,02,01,47,16.10
2013,09,02,01,48,16.10
2013,09,02,01,49,16.10
2013,09,02,01,50,16.10
2013,09,02,01,51,16.10
2013,09,02,01,52,16.10
2013,09,02,01,53,16.10
2013,09,02,01,54,16.10
2013,09,02,01,55,16.10
2013,09,02,01,56,16.10
2013,09,02,01,57,16.00
2013,09,02,01,58,16.00
2013,09,02,01,59,16.00
2013,09,02,02,00,16.00
2013,09,02,02,01,16.00
2013,09,02,02,02,16.00
2013,09,02,02,03,16.00
2013,09,02,02,04,16.00
2013,09,02,02,05,16.00
2013,09,02,02,06,15.90
2013,09,02,02,07,15.90
2013,09,02,02,08,15.90
2013,09,02,02,09,15.90
2013,09,02,02,10,15.90
2013,09,02,02,11,15.90
2013,09,02,02,12,15.90
2013,09,02,02,13,15.80
2013,09,02,02,14,15.80
2013,09,02,02,15,15.80
2013,09,02,02,16,15.80
2013,09,02,02,17,15.80
2013,09,02,02,18,15.80
2013,09,02,02,19,15.80
2013,09,02,02,20,15.80
2013,09,02,02,21,15.80
2013,09,02,02,22,15.80
2013,09,02,02,23,15.80
2013,09,02,02,24,15.80
2013,09,02,02,25,15.80
2013,09,02,02,26,15.70
2013,09,02,02,27,15.70
2013,09,02,02,28,15.70
2013,09,02,02,29,15.70
2013,09,02,02,30,15.70
2013,09,02,02,31,15.70
2013,09,02,02,32,15.70
2013,09,02,02,33,15.70
2013,09,02,02,34,15.80
2013,09,02,02,35,15.80
2013,09,02,02,36,15.80
2013,09,02,02,37,15.80
2013,09,02,02,38,15.80
2013,09,02,02,39,15.80
2013,09,02,02,40,15.80
2013,09,02,02,41,15.80
2013,09,02,02,42,15.80
2013,09,02,02,43,15.80
2013,09,02,02,44,15.80
2013,09,02,02,45,15.80
2013,09,02,02,46,15.90
2013,09,02,02,47,15.90
2013,09,02,02,48,15.90
2013,09,02,02,49,15.90
2013,09,02,02,50,15.90
2013,09,02,02,51,15.90
2013,09,02,02,52,15.90
2013,09,02,02,53,15.90
2013,09,02,02,54,15.90
2013,09,02,02,55,15.90
2013,09,02,02,56,15.90
2013,09,02,02,57,15.90
2013,09,02,02,58,15.90
2013,09,02,02,59,15.90
2013,09,02,03,00,15.90
2013,09,02,03,01,15.90
2013,09,02,03,02,15.90
2013,09,02,03,03,15.90
2013,09,02,03,04,15.90
2013,09,02,03,05,15.90
2013,09,02,03,06,15.90
2013,09,02,03,07,15.90
2013,09,02,03,08,15.80
2013,09,02,03,09,15.80
2013,09,02,03,10,15.80
2013,09,02,03,11,15.80
2013,09,02,03,12,15.80
2013,09,02,03,13,15.80
2013,09,02,03,14,15.70
2013,09,02,03,15,15.70
2013,09,02,03,16,15.70
2013,09,02,03,17,15.60
2013,09,02,03,18,15.60
2013,09,02,03,19,15.50
2013,09,02,03,20,15.50
2013,09,02,03,21,15.40
2013,09,02,03,22,15.40
2013,09,02,03,23,15.30
2013,09,02,03,24,15.30
2013,09,02,03,25,15.30
2013,09,02,03,26,15.20
2013,09,02,03,27,15.20
2013,09,02,03,28,15.20
2013,09,02,03,29,15.10
2013,09,02,03,30,15.10
2013,09,02,03,31,15.00
2013,09,02,03,32,15.00
2013,09,02,03,33,15.00
2013,09,02,03,34,15.00
2013,09,02,03,35,15.00
2013,09,02,03,36,15.00
2013,09,02,03,37,15.00
2013,09,02,03,38,15.00
2013,09,02,03,39,15.00
2013,09,02,03,40,14.90
2013,09,02,03,41,14.90
2013,09,02,03,42,14.90
2013,09,02,03,43,14.90
2013,09,02,03,44,14.90
2013,09,02,03,45,14.90
2013,09,02,03,46,14.80
2013,09,02,03,47,14.80
2013,09,02,03,48,14.80
2013,09,02,03,49,14.80
2013,09,02,03,50,14.80
2013,09,02,03,51,14.80
2013,09,02,03,52,14.80
2013,09,02,03,53,14.80
2013,09,02,03,54,14.80
2013,09,02,03,55,14.80
2013,09,02,03,56,14.80
2013,09,02,03,57,14.80
2013,09,02,03,58,14.80
2013,09,02,03,59,14.80
2013,09,02,04,00,14.80
2013,09,02,04,01,14.80
2013,09,02,04,02,14.80
2013,09,02,04,03,14.90
2013,09,02,04,04,14.90
2013,09,02,04,05,14.90
2013,09,02,04,06,14.90
2013,09,02,04,07,14.90
2013,09,02,04,08,14.90
2013,09,02,04,09,14.90
2013,09,02,04,10,14.90
2013,09,02,04,11,15.00
2013,09,02,04,12,15.00
2013,09,02,04,13,15.00
2013,09,02,04,14,15.00
2013,09,02,04,15,15.00
2013,09,02,04,16,15.00
2013,09,02,04,17,15.00
2013,09,02,04,18,15.00
2013,09,02,04,19,15.00
2013,09,02,04,20,15.00
2013,09,02,04,21,14.90
2013,09,02,04,22,14.90
2013,09,02,04,23,14.90
2013,09,02,04,24,14.90
2013,09,02,04,25,14.90
2013,09,02,04,26,14.90
2013,09,02,04,27,14.90
2013,09,02,04,28,14.90
2013,09,02,04,29,15.00
2013,09,02,04,30,15.00
2013,09,02,04,31,15.00
2013,09,02,04,32,15.00
2013,09,02,04,33,15.00
2013,09,02,04,34,15.00
2013,09,02,04,35,15.00
2013,09,02,04,36,15.00
2013,09,02,04,37,15.00
2013,09,02,04,38,15.00
2013,09,02,04,39,15.00
2013,09,02,04,40,15.00
2013,09,02,04,41,15.00
2013,09,02,04,42,15.00
2013,09,02,04,43,15.00
2013,09,02,04,44,15.00
2013,09,02,04,45,15.00
2013,09,02,04,46,15.00
2013,09,02,04,47,15.00
2013,09,02,04,48,15.00
2013,09,02,04,49,15.00
2013,09,02,04,50,15.10
2013,09,02,04,51,15.10
2013,09,02,04,52,15.10
2013,09,02,04,53,15.10
2013,09,02,04,54,15.20
2013,09,02,04,55,15.20
2013,09,02,04,56,15.20
2013,09,02,04,57,15.20
2013,09,02,04,58,15.20
2013,09,02,04,59,15.20
2013,09,02,05,00,15.20
2013,09,02,05,01,15.20
2013,09,02,05,02,15.20
2013,09,02,05,03,15.20
2013,09,02,05,04,15.20
2013,09,02,05,05,15.20
2013,09,02,05,06,15.20
2013,09,02,05,07,15.20
2013,09,02,05,08,15.20
2013,09,02,05,09,15.20
2013,09,02,05,10,15.20
2013,09,02,05,11,15.20
2013,09,02,05,12,15.20
2013,09,02,05,13,15.20
2013,09,02,05,14,15.20
2013,09,02,05,15,15.10
2013,09,02,05,16,15.00
2013,09,02,05,17,15.00
2013,09,02,05,18,15.00
2013,09,02,05,19,15.00
2013,09,02,05,20,14.90
2013,09,02,05,21,14.80
2013,09,02,05,22,14.80
2013,09,02,05,23,14.80
2013,09,02,05,24,14.80
2013,09,02,05,25,14.70
2013,09,02,05,26,14.70
2013,09,02,05,27,14.60
2013,09,02,05,28,14.60
2013,09,02,05,29,14.60
2013,09,02,05,30,14.60
2013,09,02,05,31,14.50
2013,09,02,05,32,14.50
2013,09,02,05,33,14.50
2013,09,02,05,34,14.40
2013,09,02,05,35,14.40
2013,09,02,05,36,14.40
2013,09,02,05,37,14.40
2013,09,02,05,38,14.40
2013,09,02,05,39,14.40
2013,09,02,05,40,14.40
2013,09,02,05,41,14.40
2013,09,02,05,42,14.40
2013,09,02,05,43,14.40
2013,09,02,05,44,14.40
2013,09,02,05,45,14.40
2013,09,02,05,46,14.40
2013,09,02,05,47,14.40
2013,09,02,05,48,14.40
2013,09,02,05,49,14.40
2013,09,02,05,50,14.40
2013,09,02,05,51,14.50
2013,09,02,05,52,14.50
2013,09,02,05,53,14.50
2013,09,02,05,54,14.50
2013,09,02,05,55,14.50
2013,09,02,05,56,14.50
2013,09,02,05,57,14.50
2013,09,02,05,58,14.50
2013,09,02,05,59,14.50
2013,09,02,06,00,14.50
2013,09,02,06,01,14.50
2013,09,02,06,02,14.50
2013,09,02,06,03,14.50
2013,09,02,06,04,14.50
2013,09,02,06,05,14.50
2013,09,02,06,06,14.50
2013,09,02,06,07,14.50
2013,09,02,06,08,14.50
2013,09,02,06,09,14.50
2013,09,02,06,10,14.60
2013,09,02,06,11,14.60
2013,09,02,06,12,14.60
2013,09,02,06,13,14.60
2013,09,02,06,14,14.60
2013,09,02,06,15,14.60
2013,09,02,06,16,14.60
2013,09,02,06,17,14.60
2013,09,02,06,18,14.60
2013,09,02,06,19,14.70
2013,09,02,06,20,14.70
2013,09,02,06,21,14.70
2013,09,02,06,22,14.70
2013,09,02,06,23,14.70
2013,09,02,06,24,14.70
2013,09,02,06,25,14.70
2013,09,02,06,26,14.70
2013,09,02,06,27,14.70
2013,09,02,06,28,14.70
2013,09,02,06,29,14.70
2013,09,02,06,30,14.70
2013,09,02,06,31,14.70
2013,09,02,06,32,14.70
2013,09,02,06,33,14.70
2013,09,02,06,34,14.80
2013,09,02,06,35,14.80
2013,09,02,06,36,14.80
2013,09,02,06,37,14.80
2013,09,02,06,38,14.80
2013,09,02,06,39,14.80
2013,09,02,06,40,14.80
2013,09,02,06,41,14.80
2013,09,02,06,42,14.80
2013,09,02,06,43,14.80
2013,09,02,06,44,14.80
2013,09,02,06,45,14.80
2013,09,02,06,46,14.80
2013,09,02,06,47,14.80
2013,09,02,06,48,14.80
2013,09,02,06,49,14.80
2013,09,02,06,50,14.80
2013,09,02,06,51,14.80
2013,09,02,06,52,14.80
2013,09,02,06,53,14.80
2013,09,02,06,54,14.80
2013,09,02,06,55,14.80
2013,09,02,06,56,14.80
2013,09,02,06,57,14.80
2013,09,02,06,58,14.80
2013,09,02,06,59,14.80
2013,09,02,07,00,14.80
2013,09,02,07,01,14.80
2013,09,02,07,02,14.80
2013,09,02,07,03,14.80
2013,09,02,07,04,14.80
2013,09,02,07,05,14.80
2013,09,02,07,06,14.90
2013,09,02,07,07,14.90
2013,09,02,07,08,14.90
2013,09,02,07,09,14.90
2013,09,02,07,10,14.90
2013,09,02,07,11,14.90
2013,09,02,07,12,15.00
2013,09,02,07,13,15.00
2013,09,02,07,14,15.00
2013,09,02,07,15,15.00
2013,09,02,07,16,15.00
2013,09,02,07,17,15.00
2013,09,02,07,18,15.00
2013,09,02,07,19,15.00
2013,09,02,07,20,15.00
2013,09,02,07,21,15.00
2013,09,02,07,22,15.00
2013,09,02,07,23,15.00
2013,09,02,07,24,15.00
2013,09,02,07,25,15.00
2013,09,02,07,26,15.00
2013,09,02,07,27,15.00
2013,09,02,07,28,15.00
2013,09,02,07,29,15.10
2013,09,02,07,30,15.10
2013,09,02,07,31,15.10
2013,09,02,07,32,15.10
2013,09,02,07,33,15.10
2013,09,02,07,34,15.10
2013,09,02,07,35,15.10
2013,09,02,07,36,15.10
2013,09,02,07,37,15.10
2013,09,02,07,38,15.10
2013,09,02,07,39,15.20
2013,09,02,07,40,15.10
2013,09,02,07,41,15.10
2013,09,02,07,42,15.20
2013,09,02,07,43,15.20
2013,09,02,07,44,15.20
2013,09,02,07,45,15.20
2013,09,02,07,46,15.20
2013,09,02,07,47,15.20
2013,09,02,07,48,15.20
2013,09,02,07,49,15.20
2013,09,02,07,50,15.20
2013,09,02,07,51,15.20
2013,09,02,07,52,15.30
2013,09,02,07,53,15.30
2013,09,02,07,54,15.30
2013,09,02,07,55,15.30
2013,09,02,07,56,15.30
2013,09,02,07,57,15.30
2013,09,02,07,58,15.30
2013,09,02,07,59,15.30
2013,09,02,08,00,15.30
2013,09,02,08,01,15.30
2013,09,02,08,02,15.30
2013,09,02,08,03,15.30
2013,09,02,08,04,15.30
2013,09,02,08,05,15.30
2013,09,02,08,06,15.40
2013,09,02,08,07,15.40
2013,09,02,08,08,15.40
2013,09,02,08,09,15.40
2013,09,02,08,10,15.40
2013,09,02,08,11,15.40
2013,09,02,08,12,15.40
2013,09,02,08,13,15.50
2013,09,02,08,14,15.50
2013,09,02,08,15,15.50
2013,09,02,08,16,15.50
2013,09,02,08,17,15.50
2013,09,02,08,18,15.50
2013,09,02,08,19,15.60
2013,09,02,08,20,15.60
2013,09,02,08,21,15.60
2013,09,02,08,22,15.60
2013,09,02,08,23,15.60
2013,09,02,08,24,15.60
2013,09,02,08,25,15.70
2013,09,02,08,26,15.70
2013,09,02,08,27,15.70
2013,09,02,08,28,15.70
2013,09,02,08,29,15.70
2013,09,02,08,30,15.70
2013,09,02,08,31,15.80
2013,09,02,08,32,15.80
2013,09,02,08,33,15.80
2013,09,02,08,34,15.80
2013,09,02,08,35,15.80
2013,09,02,08,36,15.80
2013,09,02,08,37,15.80
2013,09,02,08,38,15.80
2013,09,02,08,39,15.70
2013,09,02,08,40,15.70
2013,09,02,08,41,15.70
2013,09,02,08,42,15.70
2013,09,02,08,43,15.70
2013,09,02,08,44,15.60
2013,09,02,08,45,15.60
2013,09,02,08,46,15.60
2013,09,02,08,47,15.60
2013,09,02,08,48,15.60
2013,09,02,08,49,15.60
2013,09,02,08,50,15.60
2013,09,02,08,51,15.70
2013,09,02,08,52,15.70
2013,09,02,08,53,15.70
2013,09,02,08,54,15.70
2013,09,02,08,55,15.70
2013,09,02,08,56,15.70
2013,09,02,08,57,15.70
2013,09,02,08,58,15.70
2013,09,02,08,59,15.70
2013,09,02,09,00,15.70
2013,09,02,09,01,15.70
2013,09,02,09,02,15.70
2013,09,02,09,03,15.70
2013,09,02,09,04,15.70
2013,09,02,09,05,15.70
2013,09,02,09,06,15.70
2013,09,02,09,07,15.70
2013,09,02,09,08,15.70
2013,09,02,09,09,15.70
2013,09,02,09,10,15.70
2013,09,02,09,11,15.70
2013,09,02,09,12,15.70
2013,09,02,09,13,15.70
2013,09,02,09,14,15.70
2013,09,02,09,15,15.60
2013,09,02,09,16,15.60
2013,09,02,09,17,15.60
2013,09,02,09,18,15.60
2013,09,02,09,19,15.60
2013,09,02,09,20,15.60
2013,09,02,09,21,15.60
2013,09,02,09,22,15.60
2013,09,02,09,23,15.60
2013,09,02,09,24,15.60
2013,09,02,09,25,15.70
2013,09,02,09,26,15.70
2013,09,02,09,27,15.70
2013,09,02,09,28,15.70
2013,09,02,09,29,15.70
2013,09,02,09,30,15.70
2013,09,02,09,31,15.70
2013,09,02,09,32,15.70
2013,09,02,09,33,15.70
2013,09,02,09,34,15.70
2013,09,02,09,35,15.70
2013,09,02,09,36,15.70
2013,09,02,09,37,15.70
2013,09,02,09,38,15.70
2013,09,02,09,39,15.70
2013,09,02,09,40,15.70
2013,09,02,09,41,15.70
2013,09,02,09,42,15.70
2013,09,02,09,43,15.70
2013,09,02,09,44,15.60
2013,09,02,09,45,15.60
2013,09,02,09,46,15.60
2013,09,02,09,47,15.60
2013,09,02,09,48,15.70
2013,09,02,09,49,15.70
2013,09,02,09,50,15.70
2013,09,02,09,51,15.70
2013,09,02,09,52,15.70
2013,09,02,09,53,15.70
2013,09,02,09,54,15.70
2013,09,02,09,55,15.70
2013,09,02,09,56,15.80
2013,09,02,09,57,15.80
2013,09,02,09,58,15.80
2013,09,02,09,59,15.80
2013,09,02,10,00,15.80
2013,09,02,10,01,15.80
2013,09,02,10,02,15.80
2013,09,02,10,03,15.80
2013,09,02,10,04,15.80
2013,09,02,10,05,15.80
2013,09,02,10,06,15.80
2013,09,02,10,07,15.90
2013,09,02,10,08,15.90
2013,09,02,10,09,15.90
2013,09,02,10,10,15.90
2013,09,02,10,11,15.90
2013,09,02,10,12,15.90
2013,09,02,10,13,16.00
2013,09,02,10,14,16.00
2013,09,02,10,15,16.00
2013,09,02,10,16,16.00
2013,09,02,10,17,16.10
2013,09,02,10,18,16.10
2013,09,02,10,19,16.10
2013,09,02,10,20,16.10
2013,09,02,10,21,16.10
2013,09,02,10,22,16.10
2013,09,02,10,23,16.10
2013,09,02,10,24,16.10
2013,09,02,10,25,16.10
2013,09,02,10,26,16.10
2013,09,02,10,27,16.20
2013,09,02,10,28,16.20
2013,09,02,10,29,16.20
2013,09,02,10,30,16.20
2013,09,02,10,31,16.20
2013,09,02,10,32,16.20
2013,09,02,10,33,16.20
2013,09,02,10,34,16.20
2013,09,02,10,35,16.20
2013,09,02,10,36,16.20
2013,09,02,10,37,16.30
2013,09,02,10,38,16.30
2013,09,02,10,39,16.30
2013,09,02,10,40,16.30
2013,09,02,10,41,16.30
2013,09,02,10,42,16.40
2013,09,02,10,43,16.40
2013,09,02,10,44,16.40
2013,09,02,10,45,16.40
2013,09,02,10,46,16.40
2013,09,02,10,47,16.50
2013,09,02,10,48,16.50
2013,09,02,10,49,16.50
2013,09,02,10,50,16.60
2013,09,02,10,51,16.60
2013,09,02,10,52,16.60
2013,09,02,10,53,16.50
2013,09,02,10,54,16.50
2013,09,02,10,55,16.50
2013,09,02,10,56,16.50
2013,09,02,10,57,16.60
2013,09,02,10,58,16.60
2013,09,02,10,59,16.60
2013,09,02,11,00,16.60
2013,09,02,11,01,16.60
2013,09,02,11,02,16.70
2013,09,02,11,03,16.70
2013,09,02,11,04,16.70
2013,09,02,11,05,16.70
2013,09,02,11,06,16.70
2013,09,02,11,07,16.70
2013,09,02,11,08,16.80
2013,09,02,11,09,16.80
2013,09,02,11,10,16.80
2013,09,02,11,11,16.70
2013,09,02,11,12,16.70
2013,09,02,11,13,16.70
2013,09,02,11,14,16.60
2013,09,02,11,15,16.60
2013,09,02,11,16,16.60
2013,09,02,11,17,16.60
2013,09,02,11,18,16.50
2013,09,02,11,19,16.50
2013,09,02,11,20,16.60
2013,09,02,11,21,16.60
2013,09,02,11,22,16.60
2013,09,02,11,23,16.60
2013,09,02,11,24,16.70
2013,09,02,11,25,16.70
2013,09,02,11,26,16.70
2013,09,02,11,27,16.80
2013,09,02,11,28,16.70
2013,09,02,11,29,16.80
2013,09,02,11,30,16.80
2013,09,02,11,31,16.80
2013,09,02,11,32,16.80
2013,09,02,11,33,16.90
2013,09,02,11,34,16.90
2013,09,02,11,35,16.90
2013,09,02,11,36,17.00
2013,09,02,11,37,17.00
2013,09,02,11,38,17.00
2013,09,02,11,39,17.10
2013,09,02,11,40,17.10
2013,09,02,11,41,17.10
2013,09,02,11,42,17.10
2013,09,02,11,43,17.10
2013,09,02,11,44,17.10
2013,09,02,11,45,17.20
2013,09,02,11,46,17.20
2013,09,02,11,47,17.20
2013,09,02,11,48,17.20
2013,09,02,11,49,17.30
2013,09,02,11,50,17.30
2013,09,02,11,51,17.30
2013,09,02,11,52,17.30
2013,09,02,11,53,17.30
2013,09,02,11,54,17.30
2013,09,02,11,55,17.40
2013,09,02,11,56,17.40
2013,09,02,11,57,17.40
2013,09,02,11,58,17.50
2013,09,02,11,59,17.50
2013,09,02,12,00,17.60
2013,09,02,12,01,17.70
2013,09,02,12,02,17.70
2013,09,02,12,03,17.80
2013,09,02,12,04,17.80
2013,09,02,12,05,17.80
2013,09,02,12,06,17.80
2013,09,02,12,07,17.80
2013,09,02,12,08,17.80
2013,09,02,12,09,17.90
2013,09,02,12,10,17.90
2013,09,02,12,11,17.90
2013,09,02,12,12,18.00
2013,09,02,12,13,18.00
2013,09,02,12,14,18.10
2013,09,02,12,15,18.10
2013,09,02,12,16,18.20
2013,09,02,12,17,18.20
2013,09,02,12,18,18.30
2013,09,02,12,19,18.40
2013,09,02,12,20,18.40
2013,09,02,12,21,18.40
2013,09,02,12,22,18.50
2013,09,02,12,23,18.60
2013,09,02,12,24,18.50
2013,09,02,12,25,18.50
2013,09,02,12,26,18.60
2013,09,02,12,27,18.60
2013,09,02,12,28,18.70
2013,09,02,12,29,18.80
2013,09,02,12,30,18.90
2013,09,02,12,31,19.00
2013,09,02,12,32,19.00
2013,09,02,12,33,19.10
2013,09,02,12,34,19.10
2013,09,02,12,35,19.10
2013,09,02,12,36,19.10
2013,09,02,12,37,19.20
2013,09,02,12,38,19.30
2013,09,02,12,39,19.30
2013,09,02,12,40,19.40
2013,09,02,12,41,19.50
2013,09,02,12,42,19.50
2013,09,02,12,43,19.50
2013,09,02,12,44,19.60
2013,09,02,12,45,19.60
2013,09,02,12,46,19.60
2013,09,02,12,47,19.60
2013,09,02,12,48,19.60
2013,09,02,12,49,19.60
2013,09,02,12,50,19.70
2013,09,02,12,51,19.80
2013,09,02,12,52,19.80
2013,09,02,12,53,19.80
2013,09,02,12,54,19.70
2013,09,02,12,55,19.60
2013,09,02,12,56,19.60
2013,09,02,12,57,19.60
2013,09,02,12,58,19.60
2013,09,02,12,59,19.50
2013,09,02,13,00,19.50
2013,09,02,13,01,19.40
2013,09,02,13,02,19.40
2013,09,02,13,03,19.40
2013,09,02,13,04,19.30
2013,09,02,13,05,19.30
2013,09,02,13,06,19.30
2013,09,02,13,07,19.20
2013,09,02,13,08,19.30
2013,09,02,13,09,19.30
2013,09,02,13,10,19.30
2013,09,02,13,11,19.30
2013,09,02,13,12,19.40
2013,09,02,13,13,19.50
2013,09,02,13,14,19.60
2013,09,02,13,15,19.70
2013,09,02,13,16,19.80
2013,09,02,13,17,19.80
2013,09,02,13,18,19.90
2013,09,02,13,19,20.10
2013,09,02,13,20,20.10
2013,09,02,13,21,20.10
2013,09,02,13,22,20.10
2013,09,02,13,23,20.20
2013,09,02,13,24,20.20
2013,09,02,13,25,20.20
2013,09,02,13,26,20.20
2013,09,02,13,27,20.30
2013,09,02,13,28,20.30
2013,09,02,13,29,20.40
2013,09,02,13,30,20.40
2013,09,02,13,31,20.40
2013,09,02,13,32,20.50
2013,09,02,13,33,20.50
2013,09,02,13,34,20.50
2013,09,02,13,35,20.50
2013,09,02,13,36,20.60
2013,09,02,13,37,20.60
2013,09,02,13,38,20.60
2013,09,02,13,39,20.60
2013,09,02,13,40,20.50
2013,09,02,13,41,20.50
2013,09,02,13,42,20.40
2013,09,02,13,43,20.40
2013,09,02,13,44,20.30
2013,09,02,13,45,20.30
2013,09,02,13,46,20.40
2013,09,02,13,47,20.40
2013,09,02,13,48,20.50
2013,09,02,13,49,20.60
2013,09,02,13,50,20.80
2013,09,02,13,51,20.80
2013,09,02,13,52,21.00
2013,09,02,13,53,21.00
2013,09,02,13,54,21.10
2013,09,02,13,55,21.20
2013,09,02,13,56,21.20
2013,09,02,13,57,21.20
2013,09,02,13,58,21.10
2013,09,02,13,59,20.90
2013,09,02,14,00,20.80
2013,09,02,14,01,20.70
2013,09,02,14,02,20.50
2013,09,02,14,03,20.30
2013,09,02,14,04,20.10
2013,09,02,14,05,20.00
2013,09,02,14,06,20.00
2013,09,02,14,07,20.00
2013,09,02,14,08,20.00
2013,09,02,14,09,19.90
2013,09,02,14,10,19.90
2013,09,02,14,11,19.90
2013,09,02,14,12,19.90
2013,09,02,14,13,19.90
2013,09,02,14,14,19.90
2013,09,02,14,15,20.00
2013,09,02,14,16,20.00
2013,09,02,14,17,20.10
2013,09,02,14,18,20.20
2013,09,02,14,19,20.30
2013,09,02,14,20,20.40
2013,09,02,14,21,20.50
2013,09,02,14,22,20.60
2013,09,02,14,23,20.70
2013,09,02,14,24,20.70
2013,09,02,14,25,20.80
2013,09,02,14,26,20.80
2013,09,02,14,27,20.80
2013,09,02,14,28,20.70
2013,09,02,14,29,20.60
2013,09,02,14,30,20.60
2013,09,02,14,31,20.60
2013,09,02,14,32,20.50
2013,09,02,14,33,20.40
2013,09,02,14,34,20.40
2013,09,02,14,35,20.40
2013,09,02,14,36,20.50
2013,09,02,14,37,20.60
2013,09,02,14,38,20.70
2013,09,02,14,39,20.70
2013,09,02,14,40,20.70
2013,09,02,14,41,20.80
2013,09,02,14,42,20.80
2013,09,02,14,43,20.80
2013,09,02,14,44,20.80
2013,09,02,14,45,20.90
2013,09,02,14,46,20.90
2013,09,02,14,47,20.90
2013,09,02,14,48,21.00
2013,09,02,14,49,21.00
2013,09,02,14,50,21.10
2013,09,02,14,51,21.20
2013,09,02,14,52,21.30
2013,09,02,14,53,21.40
2013,09,02,14,54,21.50
2013,09,02,14,55,21.60
2013,09,02,14,56,21.60
2013,09,02,14,57,21.70
2013,09,02,14,58,21.80
2013,09,02,14,59,21.80
2013,09,02,15,00,21.80
2013,09,02,15,01,21.80
2013,09,02,15,02,21.80
2013,09,02,15,03,21.60
2013,09,02,15,04,21.30
2013,09,02,15,05,21.10
2013,09,02,15,06,21.00
2013,09,02,15,07,20.90
2013,09,02,15,08,20.70
2013,09,02,15,09,20.60
2013,09,02,15,10,20.50
2013,09,02,15,11,20.50
2013,09,02,15,12,20.40
2013,09,02,15,13,20.40
2013,09,02,15,14,20.40
2013,09,02,15,15,20.40
2013,09,02,15,16,20.40
2013,09,02,15,17,20.30
2013,09,02,15,18,20.30
2013,09,02,15,19,20.40
2013,09,02,15,20,20.40
2013,09,02,15,21,20.40
2013,09,02,15,22,20.40
2013,09,02,15,23,20.40
2013,09,02,15,24,20.40
2013,09,02,15,25,20.40
2013,09,02,15,26,20.40
2013,09,02,15,27,20.40
2013,09,02,15,28,20.30
2013,09,02,15,29,20.30
2013,09,02,15,30,20.30
2013,09,02,15,31,20.30
2013,09,02,15,32,20.30
2013,09,02,15,33,20.30
2013,09,02,15,34,20.20
2013,09,02,15,35,20.20
2013,09,02,15,36,20.30
2013,09,02,15,37,20.30
2013,09,02,15,38,20.30
2013,09,02,15,39,20.40
2013,09,02,15,40,20.40
2013,09,02,15,41,20.50
2013,09,02,15,42,20.60
2013,09,02,15,43,20.60
2013,09,02,15,44,20.70
2013,09,02,15,45,20.80
2013,09,02,15,46,20.80
2013,09,02,15,47,20.90
2013,09,02,15,48,21.10
2013,09,02,15,49,21.20
2013,09,02,15,50,21.20
2013,09,02,15,51,21.30
2013,09,02,15,52,21.40
2013,09,02,15,53,21.40
2013,09,02,15,54,21.40
2013,09,02,15,55,21.50
2013,09,02,15,56,21.60
2013,09,02,15,57,21.70
2013,09,02,15,58,21.70
2013,09,02,15,59,21.80
2013,09,02,16,00,21.80
2013,09,02,16,01,21.80
2013,09,02,16,02,21.80
2013,09,02,16,03,21.90
2013,09,02,16,04,21.90
2013,09,02,16,05,21.80
2013,09,02,16,06,21.80
2013,09,02,16,07,21.80
2013,09,02,16,08,21.70
2013,09,02,16,09,21.70
2013,09,02,16,10,21.60
2013,09,02,16,11,21.40
2013,09,02,16,12,21.20
2013,09,02,16,13,21.00
2013,09,02,16,14,20.90
2013,09,02,16,15,20.80
2013,09,02,16,16,20.60
2013,09,02,16,17,20.50
2013,09,02,16,18,20.40
2013,09,02,16,19,20.30
2013,09,02,16,20,20.10
2013,09,02,16,21,20.00
2013,09,02,16,22,20.00
2013,09,02,16,23,19.90
2013,09,02,16,24,19.90
2013,09,02,16,25,19.80
2013,09,02,16,26,19.80
2013,09,02,16,27,19.80
2013,09,02,16,28,19.80
2013,09,02,16,29,19.90
2013,09,02,16,30,19.90
2013,09,02,16,31,19.90
2013,09,02,16,32,20.00
2013,09,02,16,33,20.00
2013,09,02,16,34,20.10
2013,09,02,16,35,20.20
2013,09,02,16,36,20.30
2013,09,02,16,37,20.30
2013,09,02,16,38,20.40
2013,09,02,16,39,20.40
2013,09,02,16,40,20.40
2013,09,02,16,41,20.40
2013,09,02,16,42,20.40
2013,09,02,16,43,20.40
2013,09,02,16,44,20.30
2013,09,02,16,45,20.30
2013,09,02,16,46,20.30
2013,09,02,16,47,20.30
2013,09,02,16,48,20.30
2013,09,02,16,49,20.30
2013,09,02,16,50,20.30
2013,09,02,16,51,20.30
2013,09,02,16,52,20.30
2013,09,02,16,53,20.30
2013,09,02,16,54,20.30
2013,09,02,16,55,20.30
2013,09,02,16,56,20.30
2013,09,02,16,57,20.40
2013,09,02,16,58,20.50
2013,09,02,16,59,20.70
2013,09,02,17,00,20.80
2013,09,02,17,01,21.10
2013,09,02,17,02,21.40
2013,09,02,17,03,21.70
2013,09,02,17,04,21.90
2013,09,02,17,05,22.20
2013,09,02,17,06,22.40
2013,09,02,17,07,22.60
2013,09,02,17,08,22.80
2013,09,02,17,09,23.00
2013,09,02,17,10,23.10
2013,09,02,17,11,23.30
2013,09,02,17,12,23.40
2013,09,02,17,13,23.50
2013,09,02,17,14,23.60
2013,09,02,17,15,23.60
2013,09,02,17,16,23.60
2013,09,02,17,17,23.60
2013,09,02,17,18,23.60
2013,09,02,17,19,23.60